Location: ??
(31.9467°N, 34.8903°E)
Time: 18:24:00
(UTC+00:00)

NOAA 11 - Pass Details

Date: 29 October 2020
Orbit: 833 x 849 km, 98.4° (Epoch: 30 November)

Event Time Altitude Azimuth Distance (km) Brightness Sun altitude
Rises 15:32:25 0° 162° (SSE) 3,382 7.3 -8.9°
Reaches altitude 10° 15:34:46 10° 161° (SSE) 2,449 6.5 -9.4°
Maximum altitude 15:40:11 77° 76° (ENE) 863 4.1 -10.6°
Drops below altitude 10° 15:45:37 10° 351° (N) 2,452 6.6 -11.7°
Sets 15:47:59 0° 350° (N) 3,387 7.4 -12.2°
